Home   Weather   Ede   Past weeks
Flag for Netherlands

Past Weather in Ede, Netherlands — Yesterday and Last 2 Weeks

Now
28 °F

Ice fog.


Feels Like: 20 °F
Forecast: 33 / 25 °F
Wind: 9 mph from South

Location: Deelen

Current Time: Jan 23, 2019 at 12:15:55 am

Latest Report: Jan 22, 2019 at 11:25 pm


Visibility: 2 mi

Pressure: 29.50 "Hg

Humidity: 100%

Dew Point: 28 °F

Location of EdeLocation

Past Weather in Ede — Graph

°F

Ede Temperature Yesterday

Maximum temperature yesterday: 30 °F (at 11:25 am)
Minimum temperature yesterday: 23 °F (at 3:25 am)
Average temperature yesterday: 27 °F

High & Low Weather Summary for the Past Weeks

 TemperatureHumidityPressure
High48 °F (Jan 7, 10:55 pm)100% (Jan 7, 10:25 pm)30.33 "Hg (Jan 7, 10:25 pm)
Low14 °F (Jan 21, 6:25 am)56% (Jan 20, 1:55 pm)29.53 "Hg (Jan 16, 9:55 pm)
Average37 °F90%29.97 "Hg
* Reported Jan 7 10:25 pm — Jan 22 10:55 pm, Ede. Weather by CustomWeather, © 2019

Note: Actual official high and low records may vary slightly from our data, if they occured in-between our weather recording intervals... More about our weather records

Advertising

Ede Weather History for the Previous 24 Hours

Scroll right to see more
 ConditionsComfort  
Time TempWeatherWind HumidityBarometerVisibility
10:55 pm
Tue, Jan 22
28 °FIce fog.8 mph100%29.53 "Hg2 mi
10:25 pm28 °FIce fog.8 mph100%29.53 "Hg2 mi
9:25 pm28 °FHeavy mixture of precip. Mostly cloudy.9 mph100%29.53 "Hg1 mi
8:55 pm28 °FLight snow. Partly cloudy.10 mph100%29.53 "Hg1 mi
8:25 pm28 °FLight snow. Partly cloudy.10 mph100%29.56 "Hg1 mi
7:55 pm28 °FSnow showers. Partly cloudy.9 mph100%29.56 "Hg1 mi
7:25 pm28 °FSnow flurries. Partly cloudy.12 mph100%29.56 "Hg2 mi
6:55 pm28 °FLight snow. Partly cloudy.10 mph100%29.56 "Hg2 mi
6:25 pm28 °FLight snow. Partly cloudy.12 mph100%29.56 "Hg2 mi
5:55 pm28 °FLight snow. Partly cloudy.13 mph100%29.56 "Hg1 mi
5:25 pm28 °FLight snow. Mostly cloudy.12 mph100%29.59 "Hg1 mi
4:55 pm28 °FSnow showers. Partly sunny.12 mph100%29.59 "Hg1 mi
4:25 pm28 °FSnow. Broken clouds.13 mph100%29.59 "Hg1 mi
3:55 pm28 °FLight snow. Broken clouds.12 mph100%29.59 "Hg1 mi
3:25 pm28 °FLight snow. Mostly cloudy.12 mph100%29.59 "Hg1 mi
2:55 pm28 °FSnow flurries. More clouds than sun.12 mph100%29.62 "Hg1 mi
2:25 pm28 °FLight snow. More clouds than sun.12 mph93%29.62 "Hg1 mi
1:55 pm28 °FLight snow. Mostly cloudy.13 mph93%29.65 "Hg1 mi
12:55 pm28 °FLight snow. Partly sunny.15 mph80%29.65 "Hg3 mi
12:25 pm30 °FMostly cloudy.17 mph69%29.68 "HgN/A
11:55 am30 °FOvercast.16 mph69%29.68 "HgN/A
11:25 am30 °FOvercast.15 mph69%29.68 "HgN/A
10:55 am28 °FMore clouds than sun.15 mph74%29.68 "HgN/A
10:25 am28 °FOvercast.14 mph69%29.71 "HgN/A
9:55 am27 °FOvercast.15 mph74%29.71 "HgN/A
9:25 am27 °FOvercast.15 mph74%29.71 "HgN/A
8:25 am27 °FOvercast.12 mph80%29.77 "HgN/A
7:55 am27 °FOvercast.10 mph80%29.77 "HgN/A
7:25 am27 °FOvercast.12 mph80%29.77 "HgN/A
6:55 am25 °FOvercast.9 mph86%29.80 "HgN/A
6:25 am25 °FOvercast.8 mph86%29.80 "HgN/A
5:55 am25 °FIce fog.9 mph86%29.83 "Hg6 mi
5:25 am25 °FIce fog.7 mph86%29.86 "Hg4 mi
4:55 am25 °FIce fog.6 mph86%29.86 "Hg4 mi
4:25 am25 °FIce fog.6 mph86%29.89 "Hg4 mi
3:55 am23 °FIce fog.6 mph93%29.89 "Hg4 mi
3:25 am23 °FIce fog.5 mph93%29.92 "Hg6 mi
2:55 am25 °FCold.6 mph86%29.92 "HgN/A
2:25 am25 °FPassing clouds.7 mph86%29.95 "HgN/A
1:55 am25 °FCold.7 mph86%29.95 "HgN/A
1:25 am27 °FOvercast.6 mph86%29.98 "HgN/A
12:55 am27 °FOvercast.5 mph80%29.98 "HgN/A
12:25 am28 °FPassing clouds.6 mph80%30.01 "HgN/A
Weather by CustomWeather, © 2019

See weather overview